Regional Weather Roundup
Issued by NWS

Home | Current Version | Previous Version | Text Only | Print | Product List | Glossary Off
Versions: 1 2 3 4 5 6 7 8 9 10 11 12 13 14 15 16 17 18 19 20 21 22 23 24 25 26 27 28 29 30 31 32 33 34 35 36 37 38 39 40 41 42 43 44 45 46 47 48 49 50

615
ASUS45 KTFX 250110
RWRMT
MONTANA REGIONAL WEATHER ROUNDUP
NATIONAL WEATHER SERVICE GREAT FALLS MT
700 PM MDT SAT SEP 24 2016

NOTE: "FAIR" INDICATES FEW OR NO CLOUDS BELOW 12000 FEET WITH NO
SIGNIFICANT WEATHER AND/OR OBSTRUCTIONS TO VISIBILITY.

MTZ001>007-043-250200-
WEST OF THE DIVIDE

CITY           SKY/WX    TMP DP  RH WIND       PRES   REMARKS
KALISPELL      CLEAR     61  32  33 NW10      30.24R
MISSOULA       CLEAR     57  37  47 W10       30.29R
BUTTE          CLOUDY    51  29  42 NW14      30.31R
MULLAN PASS    CLEAR     40  34  79 VRB7      30.35R
ANACONDA         N/A     52  30  43 W6        30.29F
DEER LODGE       N/A     48  34  57 CALM      30.31F
EUREKA           N/A     63  34  34 SW3       30.22R
HAMILTON         N/A     57  30  35 W8        30.30F
LIBBY            N/A     61  34  36 NW3       30.26R
PLAINS           N/A     61  35  37 SW7       30.28R
RONAN            N/A     60  35  39 SW8       30.30R
$$

MTZ008-052>055-250200-
SOUTHWEST MONTANA

CITY           SKY/WX    TMP DP  RH WIND       PRES   REMARKS
BOZEMAN        CLOUDY    57  33  40 W13G21    30.26R HAZE
DILLON           N/A     53  32  44 NW5       30.30R
W YELLOWSTONE  MOCLDY    48  27  43 SW6       30.31R
ENNIS          CLOUDY    54  28  37 N10G18    30.33R
THREE FORKS      N/A     57 -29   2 NW7       30.23R
TWIN BRIDGES     N/A     57  28  33 NW6       30.26R
$$

MTZ009-010-012-014-046-048-049-054-250200-
EAST SLOPES AND CENTRAL MONTANA

CITY           SKY/WX    TMP DP  RH WIND       PRES   REMARKS
CUT BANK       PTCLDY    52  43  71 NW7       30.22R
GREAT FALLS    CLOUDY    56  40  55 NW9       30.21R
MALMSTROM AFB  CLOUDY    57  41  56 N13       30.21R
HELENA         CLOUDY    58  31  35 W17G26    30.23R
CHOTEAU          N/A     57  34  41 W10G18    30.24R
CONRAD           N/A     54  48  80 NW2       30.23R
$$

MTZ011-013-016-021-045-047-050-051-250200-
NORTH CENTRAL MONTANA

CITY           SKY/WX    TMP DP  RH WIND       PRES   REMARKS
HAVRE          CLEAR     57  42  57 NW12      30.13R
LEWISTOWN      MOCLDY    51  43  74 NW12G18   30.17R
N BAR RANCH    CLOUDY    52  41  66 NW21G30   30.16R
CHINOOK          N/A     57  41  54 NW16      30.11R
$$

MTZ017>020-022>027-061-062-250200-
NORTHEAST MONTANA

CITY           SKY/WX    TMP DP  RH WIND       PRES   REMARKS
GLASGOW        MOCLDY    53  46  77 W15       29.99R
JORDAN           N/A     51  46  83 NW12      30.04R
SIDNEY         LGT RAIN  52  49  89 N26G33    29.84R
WOLF POINT     LGT RAIN  53  48  83 NW13      29.96R
PLENTYWOOD       N/A     50  48  93 NW17G28   29.88R
POPLAR           N/A     52  48  87 NW16G24   29.93R
SCOBEY           N/A     50  43  77 NW14      29.91S
$$

MTZ028>42-056>058-250200-
SOUTHCENTRAL AND SOUTHEAST MONTANA

CITY           SKY/WX    TMP DP  RH WIND       PRES   REMARKS
BAKER          LGT RAIN  50  32  50 NW25G47   29.85R
BILLINGS       LGT RAIN  57  39  51 N18G35    30.14R
LIVINGSTON     CLOUDY    55  34  45 W12       30.23R
MILES CITY     CLOUDY    52  47  83 NW18G26   30.01R
BIG TIMBER     CLOUDY    55  34  44 W21       30.22R
EKALAKA          N/A     48  46  93 W23       29.89R
FORSYTH          N/A     50  50 100 W9        30.06R
LAUREL           N/A     57  36  45 W9        30.14R
ROUNDUP          N/A     56  42  59 W16       30.03R
$$

REGIONAL REPORTS...DAKOTAS

CITY           SKY/WX    TMP DP  RH WIND       PRES   REMARKS
WILLISTON      LGT RAIN  54  50  86 N24G32    29.80R
MINOT          CLOUDY    70  57  63 S7        29.68R
DICKINSON      MOCLDY    57  52  83 SW8       29.70R
CROSBY         CLOUDY    54  54 100 NW16G30   29.82R
WATFORD CITY   CLOUDY    54  54 100 N24G32    29.77R
BISMARCK       CLEAR     67  48  50 CALM      29.72R
GRAND FORKS    LGT RAIN  70  64  81 SE18G26   29.78S
FARGO          LGT RAIN  70  66  87 SE15G24   29.80S
BUFFALO SD       N/A     51  49  92 W35G44    29.74S
RAPID CITY     PTCLDY    54  37  52 SW6       29.97R
$$

REGIONAL REPORTS...WYOMING/IDAHO/WASHINGTON

CITY           SKY/WX    TMP DP  RH WIND       PRES   REMARKS
GILLETTE       LGT RAIN  44  43  96 NW23G32   30.11R
SHERIDAN       CLOUDY    49  46  90 CALM      30.14R
BUFFALO WY     CLOUDY    47  43  86 CALM      30.16R
CODY           CLOUDY    52  41  66 CALM      30.24R
YELLOWSTONE LA   N/A     41  33  73 CALM      30.35R
IDAHO FALLS    PTCLDY    58  42  55 S12       30.27R
SALMON         CLEAR     57  32  38 NW5       30.29F
BOISE            N/A     66  29  24 NW9       30.29S
SPOKANE        MOCLDY    64  34  32 SW14      30.29S
$$

REGIONAL REPORTS...ALBERTA

CITY           SKY/WX    TMP DP  RH WIND       PRES   REMARKS
EDMONTON       PTCLDY    57  30  35 W7        30.09R
CALGARY        PTCLDY    57  34  41 CALM      30.15R
LETHBRIDGE     PTCLDY    57  39  51 VRB2      30.17R
MEDICINE HAT   PTCLDY    55  37  50 NW6       30.14R
WATERTON GATE    N/A     52  30  43 W9          N/A
CARDSTON         N/A     55  41  58 SE3         N/A
MILK RIVER       N/A     52  41  66 NW6         N/A
ONEFOUR          N/A     52  37  58 NW12        N/A
$$

REGIONAL REPORTS...SASKATCHEWAN

CITY           SKY/WX    TMP DP  RH WIND       PRES   REMARKS
SWIFT CURRENT  MOCLDY    52  43  71 NW16G24   30.03R
REGINA         LGT RAIN  50  48  93 NW17G23   29.90R
SASKATOON      MOCLDY    54  50  87 W8        29.96R
CYPRESS HILLS    N/A     48  34  57 NW8         N/A
VAL MARIE        N/A     55  45  67 N16         N/A
ROCKGLEN         N/A     48  48 100 N15G21      N/A
ASSINIBOIA       N/A     54  32  43 NW6         N/A
$$




USA.gov is the U.S. government's official web portal to all federal, state and local government web resources and services.